TimePST,TemperatureF,Dew PointF,Humidity,Sea Level PressureIn,VisibilityMPH,Wind Direction,Wind SpeedMPH,Gust SpeedMPH,PrecipitationIn,Events,Conditions,WindDirDegrees,DateUTC
12:35 AM,42.8,10.4,27,30.25,10.0,SSW,4.6,-,N/A,,Clear,210,2013-01-14 08:35:00
12:55 AM,41.0,10.4,29,30.25,10.0,WSW,3.5,-,N/A,,Clear,240,2013-01-14 08:55:00
1:15 AM,41.0,10.4,29,30.25,10.0,WSW,8.1,-,N/A,,Clear,240,2013-01-14 09:15:00
1:35 AM,41.0,8.6,26,30.25,10.0,SSW,9.2,-,N/A,,Clear,210,2013-01-14 09:35:00
1:55 AM,42.8,8.6,25,30.26,10.0,NNE,5.8,-,N/A,,Clear,20,2013-01-14 09:55:00
2:15 AM,35.6,15.8,44,30.27,10.0,Calm,Calm,-,N/A,,Clear,0,2013-01-14 10:15:00
2:35 AM,37.4,14.0,38,30.27,10.0,SE,3.5,-,N/A,,Clear,140,2013-01-14 10:35:00
2:55 AM,33.8,15.8,48,30.28,10.0,ESE,4.6,-,N/A,,Clear,120,2013-01-14 10:55:00
3:15 AM,32.0,15.8,51,30.29,10.0,East,3.5,-,N/A,,Clear,80,2013-01-14 11:15:00
3:35 AM,35.6,15.8,44,30.29,10.0,SSE,5.8,-,N/A,,Clear,150,2013-01-14 11:35:00
3:55 AM,33.8,15.8,48,30.28,10.0,SSW,4.6,-,N/A,,Clear,200,2013-01-14 11:55:00
4:15 AM,32.0,17.6,55,30.28,10.0,NE,3.5,-,N/A,,Clear,40,2013-01-14 12:15:00
4:35 AM,32.0,15.8,51,30.29,10.0,ENE,3.5,-,N/A,,Clear,60,2013-01-14 12:35:00
4:55 AM,32.0,17.6,55,30.29,10.0,NW,4.6,-,N/A,,Clear,320,2013-01-14 12:55:00
5:15 AM,30.2,17.6,60,30.30,10.0,SSW,3.5,-,N/A,,Partly Cloudy,200,2013-01-14 13:15:00
5:35 AM,30.2,17.6,60,30.31,10.0,NE,3.5,-,N/A,,Clear,50,2013-01-14 13:35:00
5:55 AM,32.0,17.6,55,30.32,10.0,ENE,4.6,-,N/A,,Clear,70,2013-01-14 13:55:00
6:15 AM,32.0,17.6,55,30.33,10.0,Calm,Calm,-,N/A,,Clear,0,2013-01-14 14:15:00
6:35 AM,30.2,17.6,60,30.35,10.0,Calm,Calm,-,N/A,,Clear,0,2013-01-14 14:35:00
6:55 AM,32.0,17.6,55,30.36,10.0,Calm,Calm,-,N/A,,Clear,0,2013-01-14 14:55:00
7:15 AM,28.4,17.6,64,30.36,10.0,Calm,Calm,-,N/A,,Clear,0,2013-01-14 15:15:00
7:35 AM,26.6,19.4,74,30.37,10.0,Calm,Calm,-,N/A,,Clear,0,2013-01-14 15:35:00
7:55 AM,28.4,19.4,69,30.38,10.0,ENE,4.6,-,N/A,,Clear,60,2013-01-14 15:55:00
8:15 AM,32.0,21.2,64,30.38,10.0,Calm,Calm,-,N/A,,Clear,0,2013-01-14 16:15:00
8:35 AM,32.0,23.0,69,30.39,10.0,Calm,Calm,-,N/A,,Clear,0,2013-01-14 16:35:00
8:55 AM,35.6,23.0,60,30.40,10.0,Calm,Calm,-,N/A,,Clear,0,2013-01-14 16:55:00
9:15 AM,37.4,21.2,52,30.41,10.0,Calm,Calm,-,N/A,,Clear,0,2013-01-14 17:15:00
9:35 AM,39.2,19.4,45,30.41,10.0,Calm,Calm,-,N/A,,Clear,0,2013-01-14 17:35:00
9:55 AM,41.0,19.4,42,30.41,10.0,Calm,Calm,-,N/A,,Clear,0,2013-01-14 17:55:00
10:15 AM,42.8,21.2,42,30.41,10.0,SE,3.5,-,N/A,,Clear,140,2013-01-14 18:15:00
10:35 AM,44.6,24.8,46,30.42,10.0,ESE,4.6,-,N/A,,Clear,120,2013-01-14 18:35:00
10:55 AM,44.6,24.8,46,30.42,10.0,ESE,3.5,-,N/A,,Clear,120,2013-01-14 18:55:00
11:15 AM,44.6,24.8,46,30.41,10.0,SSE,4.6,-,N/A,,Clear,160,2013-01-14 19:15:00
11:35 AM,46.4,23.0,40,30.41,10.0,SSE,5.8,-,N/A,,Clear,150,2013-01-14 19:35:00
11:55 AM,46.4,19.4,34,30.39,10.0,Calm,Calm,-,N/A,,Clear,0,2013-01-14 19:55:00
12:15 PM,48.2,21.2,34,30.38,10.0,Calm,Calm,-,N/A,,Clear,0,2013-01-14 20:15:00
12:35 PM,48.2,21.2,34,30.37,10.0,Calm,Calm,-,N/A,,Clear,0,2013-01-14 20:35:00
12:55 PM,48.2,19.4,32,30.37,10.0,Calm,Calm,-,N/A,,Clear,0,2013-01-14 20:55:00
1:15 PM,50.0,19.4,30,30.37,10.0,Calm,Calm,-,N/A,,Clear,0,2013-01-14 21:15:00
1:35 PM,50.0,19.4,30,30.37,10.0,Calm,Calm,-,N/A,,Clear,0,2013-01-14 21:35:00
1:55 PM,50.0,19.4,30,30.37,10.0,North,3.5,-,N/A,,Clear,360,2013-01-14 21:55:00
2:15 PM,51.8,19.4,28,30.37,10.0,Calm,Calm,-,N/A,,Clear,0,2013-01-14 22:15:00
2:35 PM,51.8,19.4,28,30.37,10.0,Calm,Calm,-,N/A,,Clear,0,2013-01-14 22:35:00
2:55 PM,53.6,19.4,26,30.37,10.0,South,3.5,-,N/A,,Clear,170,2013-01-14 22:55:00
3:15 PM,51.8,23.0,33,30.39,10.0,SE,3.5,-,N/A,,Clear,140,2013-01-14 23:15:00
3:35 PM,51.8,23.0,33,30.38,10.0,ESE,3.5,-,N/A,,Clear,120,2013-01-14 23:35:00
3:55 PM,51.8,24.8,35,30.38,10.0,East,4.6,-,N/A,,Clear,100,2013-01-14 23:55:00
4:15 PM,50.0,24.8,37,30.38,10.0,Calm,Calm,-,N/A,,Clear,0,2013-01-15 00:15:00
4:35 PM,50.0,28.4,43,30.38,10.0,West,5.8,-,N/A,,Clear,280,2013-01-15 00:35:00
4:55 PM,48.2,28.4,46,30.38,10.0,WNW,8.1,-,N/A,,Clear,290,2013-01-15 00:55:00
5:15 PM,46.4,28.4,50,30.39,10.0,NW,5.8,-,N/A,,Clear,310,2013-01-15 01:15:00
5:35 PM,44.6,30.2,57,30.38,10.0,NW,4.6,-,N/A,,Clear,320,2013-01-15 01:35:00
5:55 PM,41.0,30.2,65,30.39,10.0,NNW,4.6,-,N/A,,Clear,330,2013-01-15 01:55:00
6:15 PM,41.0,30.2,65,30.39,10.0,Calm,Calm,-,N/A,,Clear,0,2013-01-15 02:15:00
6:35 PM,39.2,32.0,75,30.39,10.0,Calm,Calm,-,N/A,,Clear,0,2013-01-15 02:35:00
6:55 PM,37.4,32.0,81,30.38,10.0,NNW,3.5,-,N/A,,Clear,330,2013-01-15 02:55:00
7:15 PM,37.4,32.0,81,30.39,10.0,Calm,Calm,-,N/A,,Clear,0,2013-01-15 03:15:00
7:35 PM,37.4,32.0,81,30.39,10.0,Calm,Calm,-,N/A,,Clear,0,2013-01-15 03:35:00
7:55 PM,35.6,32.0,87,30.39,10.0,Calm,Calm,-,N/A,,Clear,0,2013-01-15 03:55:00
8:15 PM,33.8,32.0,93,30.40,10.0,Calm,Calm,-,N/A,,Clear,0,2013-01-15 04:15:00
8:35 PM,33.8,32.0,93,30.40,10.0,Calm,Calm,-,N/A,,Clear,0,2013-01-15 04:35:00
8:55 PM,33.8,30.2,87,30.39,10.0,Calm,Calm,-,N/A,,Clear,0,2013-01-15 04:55:00
9:15 PM,33.8,32.0,93,30.39,10.0,Calm,Calm,-,N/A,,Clear,0,2013-01-15 05:15:00
9:35 PM,33.8,32.0,93,30.39,10.0,Calm,Calm,-,N/A,,Clear,0,2013-01-15 05:35:00
9:55 PM,33.8,32.0,93,30.39,10.0,Calm,Calm,-,N/A,,Clear,0,2013-01-15 05:55:00
10:15 PM,32.0,30.2,93,30.39,10.0,Calm,Calm,-,N/A,,Clear,0,2013-01-15 06:15:00
10:35 PM,32.0,32.0,100,30.39,10.0,Calm,Calm,-,N/A,,Clear,0,2013-01-15 06:35:00
11:15 PM,32.0,30.2,93,30.40,10.0,Calm,Calm,-,N/A,,Clear,0,2013-01-15 07:15:00
11:35 PM,32.0,32.0,100,30.41,10.0,Calm,Calm,-,N/A,,Clear,0,2013-01-15 07:35:00
11:55 PM,32.0,30.2,93,30.41,10.0,SSE,3.5,-,N/A,,Clear,160,2013-01-15 07:55:00